Regional Weather Roundup
Issued by NWS

Home | Current Version | Previous Version | Text Only | Print | Product List | Glossary On
Versions: 1 2 3 4 5 6 7 8 9 10 11 12 13 14 15 16 17 18 19 20 21 22 23 24 25 26 27
000
ASUS44 KLIX 271713
RWRLA
LOUISIANA WEATHER ROUNDUP
NATIONAL WEATHER SERVICE NEW ORLEANS LA
1200 PM CDT MON MAR 27 2017

NOTE: "FAIR" INDICATES FEW OR NO CLOUDS BELOW 12,000 FEET WITH NO
      SIGNIFICANT WEATHER AND/OR OBSTRUCTIONS TO VISIBILITY.
      SKY/WX - SKY CONDITION AND SIGNIFICANT WEATHER.
      TMP - AIR TEMPERATURE.    DP   - DEWPOINT TEMPERATURE.
      RH  - RELATIVE HUMIDITY.  PRES - PRESSURE.
      HX  - HEAT INDEX.         WCI  - WIND CHILL INDEX.

*  THESE STATIONS ARE NOT NWS OR FAA STATIONS AND ARE NOT UNDER
   NWS QUALITY CONTROL.

LAZ040-048-061>063-065-066-069-271800-
SOUTHEAST LOUISIANA

CITY           SKY/WX    TMP DP  RH WIND       PRES   REMARKS
N.O. INTL ARPT MOSUNNY   80  68  66 S18G25    30.01S
N.O. LAKEFRONT PTSUNNY   82  67  60 S22G31    30.01S
N.O. DOWNTOWN*   N/A     81  67  62 S17G25    30.02S
RESERVE*       PTSUNNY   82  67  60 S14       30.00F
SLIDELL        PTSUNNY   79  68  69 S16       30.01F
BATON ROUGE    SUNNY     80  66  62 S17       29.97F
BOOTHVILLE     CLOUDY    77  71  82 SE12      30.05S
BELLE CHASSE   PTSUNNY   80  71  74 S16       30.02S
BOGALUSA*      NOT AVBL
GALLIANO*      PTSUNNY   79  68  69 S14G21    30.02S
NEW ROADS*       N/A     79  67  66 S10G18    29.97S
GONZALES*      FAIR      81  65  59 S13G18    29.99S
HAMMOND*       PTSUNNY   81  64  57 S13       30.00S
HOUMA*         PTSUNNY   79  70  73 SE17      30.02S
PORT FOURCHON* PTSUNNY   77  72  83 SE14G22   30.02S

$$

LAZ041-044-053-054-271800-
SOUTHWEST LOUISIANA

CITY           SKY/WX    TMP DP  RH WIND       PRES   REMARKS
LAKE CHARLES   PTSUNNY   79  68  69 S13       29.96R
LAFAYETTE      MOSUNNY   80  68  66 S15G24    29.97S
PATTERSON      PTSUNNY   79  69  71 S15G25    30.00S
SALT POINT       N/A     76  70  82 VRB7      29.98S
NEW IBERIA     MOSUNNY   80  67  64 S24G30    29.99R
CHENAULT AIRPK PTSUNNY   79  70  73 S13G18    29.96R

$$

LAZ027-028-271800-
CENTRAL LOUISIANA

CITY           SKY/WX    TMP DP  RH WIND       PRES   REMARKS
FORT POLK      PTSUNNY   77  68  73 SW9       29.93S
ALEXANDRIA INT LGT RAIN  78  67  68 S12       29.93S
ALEXANDRIA     PTSUNNY   81  67  62 S12       29.95R

$$

LAZ001-002-271800-
NORTHWEST LOUISIANA

CITY           SKY/WX    TMP DP  RH WIND       PRES   REMARKS
SHREVEPORT     CLOUDY    78  65  63 SW14      29.89F
BARKSDALE AFB  NOT AVBL
DTN SHREVEPORT CLOUDY    76  65  68 SW9       29.90S

$$

LAZ014-016-271800-
NORTHEAST LOUISIANA

CITY           SKY/WX    TMP DP  RH WIND       PRES   REMARKS
MONROE         CLOUDY    77  66  68 S9        29.93S
TALLULAH       PTSUNNY   77  64  64 S13       29.95F

$$





USA.gov is the U.S. government's official web portal to all federal, state and local government web resources and services.